• In Hungary
  • List of Countries
  • For 7 days
  • Water Temperature
  • Satellite Maps
  • Weather Map
  • News
  • Weather Widgets
  • user-avatar
    Login

    Hourly Weather Klesniska

    Today, 24 September, Monday

    Time Temperature Precipitation Wind Pressure Humidity
    00:00 +11°C° 1.1 mm 8 mps 731 mmHg 87%
    01:00 +10°C° 1.1 mm 9 mps 732 mmHg 88%
    02:00 +8°C° 0.4 mm 9 mps 734 mmHg 86%
    03:00 +7°C° 0.4 mm 9 mps 736 mmHg 84%
    04:00 +7°C° 0.4 mm 9 mps 738 mmHg 83%
    05:00 +7°C° 0.1 mm 9 mps 738 mmHg 82%
    06:00 +7°C° 0.1 mm 9 mps 739 mmHg 81%
    07:00 +7°C° 0.1 mm 9 mps 740 mmHg 81%
    08:00 +7°C° 0.1 mm 9 mps 741 mmHg 78%
    09:00 +7°C° 0.1 mm 9 mps 742 mmHg 75%
    10:00 +7°C° 0.1 mm 9 mps 743 mmHg 73%
    11:00 +8°C° 0.1 mm 10 mps 743 mmHg 68%
    12:00 +8°C° 0.1 mm 10 mps 744 mmHg 63%
    13:00 +9°C° 0.1 mm 10 mps 744 mmHg 59%
    14:00 +10°C° 0.2 mm 9 mps 744 mmHg 57%
    15:00 +10°C° 0.2 mm 9 mps 744 mmHg 56%
    16:00 +10°C° 0.2 mm 9 mps 744 mmHg 54%
    17:00 +9°C° 0 mm 8 mps 745 mmHg 56%
    18:00 +8°C° 0 mm 7 mps 745 mmHg 57%
    19:00 +8°C° 0 mm 7 mps 746 mmHg 59%
    20:00 +6°C° 0.2 mm 7 mps 746 mmHg 64%
    21:00 +6°C° 0.2 mm 7 mps 747 mmHg 69%
    22:00 +6°C° 0.2 mm 7 mps 748 mmHg 74%
    23:00 +5°C° 0.1 mm 6 mps 748 mmHg 75%

    Tomorrow, 25 September, Tuesday

    Time Temperature Precipitation Wind Pressure Humidity
    00:00 +5°C° 0.1 mm 6 mps 749 mmHg 77%
    01:00 +5°C° 0.1 mm 6 mps 749 mmHg 79%
    02:00 +5°C° 0 mm 5 mps 750 mmHg 79%
    03:00 +5°C° 0 mm 5 mps 750 mmHg 79%
    04:00 +3°C° 0 mm 5 mps 751 mmHg 79%
    05:00 +5°C° 0 mm 5 mps 751 mmHg 79%
    06:00 +5°C° 0 mm 5 mps 752 mmHg 78%
    07:00 +5°C° 0 mm 5 mps 752 mmHg 78%
    08:00 +6°C° 0 mm 5 mps 753 mmHg 71%
    09:00 +8°C° 0 mm 5 mps 753 mmHg 64%
    10:00 +9°C° 0 mm 5 mps 754 mmHg 57%
    11:00 +10°C° 0.1 mm 5 mps 754 mmHg 54%
    12:00 +10°C° 0.1 mm 5 mps 754 mmHg 50%
    13:00 +12°C° 0.1 mm 5 mps 754 mmHg 46%
    14:00 +12°C° 0.1 mm 5 mps 754 mmHg 48%
    15:00 +12°C° 0.1 mm 5 mps 754 mmHg 49%
    16:00 +11°C° 0.1 mm 4 mps 754 mmHg 51%
    17:00 +10°C° 0 mm 4 mps 755 mmHg 57%
    18:00 +9°C° 0 mm 3 mps 755 mmHg 63%
    19:00 +8°C° 0 mm 2 mps 755 mmHg 70%
    20:00 +8°C° 0 mm 2 mps 756 mmHg 72%
    21:00 +7°C° 0 mm 2 mps 756 mmHg 74%
    22:00 +7°C° 0 mm 2 mps 757 mmHg 76%
    23:00 +6°C° 0 mm 2 mps 757 mmHg 77%

    Day after tomorrow, 26 September, Wednesday

    Time Temperature Precipitation Wind Pressure Humidity
    00:00 +6°C° 0 mm 2 mps 757 mmHg 79%
    01:00 +5°C° 0 mm 2 mps 757 mmHg 80%
    02:00 +5°C° 0 mm 2 mps 757 mmHg 80%
    03:00 +5°C° 0 mm 2 mps 757 mmHg 81%
    04:00 +5°C° 0 mm 2 mps 756 mmHg 82%
    05:00 +5°C° 0 mm 2 mps 756 mmHg 79%
    06:00 +5°C° 0 mm 2 mps 756 mmHg 77%
    07:00 +6°C° 0 mm 2 mps 756 mmHg 75%
    08:00 +8°C° 0 mm 3 mps 756 mmHg 67%
    09:00 +10°C° 0 mm 4 mps 756 mmHg 59%
    10:00 +11°C° 0 mm 4 mps 755 mmHg 51%
    11:00 +12°C° 0 mm 5 mps 755 mmHg 48%
    12:00 +13°C° 0 mm 5 mps 754 mmHg 45%
    13:00 +14°C° 0 mm 5 mps 754 mmHg 42%
    14:00 +14°C° 0 mm 5 mps 753 mmHg 44%
    15:00 +14°C° 0 mm 4 mps 752 mmHg 45%
    16:00 +14°C° 0 mm 4 mps 752 mmHg 47%
    17:00 +13°C° 0 mm 4 mps 752 mmHg 49%
    18:00 +12°C° 0 mm 4 mps 751 mmHg 51%
    19:00 +11°C° 0 mm 4 mps 751 mmHg 53%
    20:00 +11°C° 0 mm 4 mps 751 mmHg 53%
    21:00 +11°C° 0 mm 4 mps 751 mmHg 53%
    22:00 +10°C° 0 mm 5 mps 751 mmHg 54%
    23:00 +10°C° 0 mm 5 mps 750 mmHg 54%

    27 September, Thursday

    Time Temperature Precipitation Wind Pressure Humidity
    00:00 +9°C° 0 mm 5 mps 750 mmHg 54%
    01:00 +9°C° 0 mm 5 mps 750 mmHg 54%
    02:00 +9°C° 0 mm 5 mps 750 mmHg 53%
    03:00 +9°C° 0 mm 5 mps 749 mmHg 52%
    04:00 +10°C° 0 mm 5 mps 749 mmHg 52%
    05:00 +10°C° 0 mm 5 mps 749 mmHg 52%
    06:00 +10°C° 0 mm 5 mps 749 mmHg 53%
    07:00 +10°C° 0 mm 5 mps 749 mmHg 54%
    08:00 +12°C° 0 mm 5 mps 749 mmHg 53%
    09:00 +14°C° 0 mm 5 mps 749 mmHg 52%
    10:00 +16°C° 0 mm 5 mps 749 mmHg 52%
    11:00 +17°C° 0 mm 5 mps 748 mmHg 52%
    12:00 +19°C° 0 mm 5 mps 748 mmHg 53%
    13:00 +20°C° 0 mm 5 mps 748 mmHg 54%
    14:00 +20°C° 0 mm 5 mps 747 mmHg 56%
    15:00 +20°C° 0 mm 5 mps 747 mmHg 57%
    16:00 +20°C° 0 mm 4 mps 747 mmHg 59%
    17:00 +19°C° 0 mm 4 mps 746 mmHg 63%
    18:00 +18°C° 0 mm 3 mps 746 mmHg 68%
    19:00 +16°C° 0 mm 3 mps 746 mmHg 73%
    20:00 +16°C° 0 mm 3 mps 746 mmHg 72%
    21:00 +14°C° 0 mm 3 mps 746 mmHg 70%
    22:00 +14°C° 0 mm 3 mps 745 mmHg 69%
    23:00 +14°C° 0 mm 3 mps 745 mmHg 68%

    28 September, Friday

    Time Temperature Precipitation Wind Pressure Humidity
    00:00 +13°C° 0 mm 3 mps 745 mmHg 67%
    01:00 +13°C° 0 mm 4 mps 745 mmHg 65%
    02:00 +13°C° 0 mm 4 mps 744 mmHg 64%
    03:00 +13°C° 0 mm 4 mps 744 mmHg 63%
    04:00 +13°C° 0 mm 4 mps 744 mmHg 62%
    05:00 +13°C° 0 mm 3 mps 744 mmHg 63%
    06:00 +13°C° 0 mm 3 mps 744 mmHg 64%
    07:00 +13°C° 0 mm 3 mps 744 mmHg 65%
    08:00 +14°C° 0 mm 4 mps 744 mmHg 66%
    09:00 +15°C° 0 mm 4 mps 744 mmHg 68%
    10:00 +15°C° 0 mm 4 mps 745 mmHg 69%
    11:00 +15°C° 0.1 mm 4 mps 745 mmHg 71%
    12:00 +14°C° 0.1 mm 3 mps 745 mmHg 74%
    13:00 +13°C° 0.1 mm 3 mps 745 mmHg 77%
    14:00 +13°C° 0.1 mm 3 mps 745 mmHg 76%
    15:00 +14°C° 0.1 mm 2 mps 745 mmHg 76%
    16:00 +13°C° 0.1 mm 2 mps 745 mmHg 76%
    17:00 +13°C° 0 mm 2 mps 746 mmHg 76%
    18:00 +12°C° 0 mm 2 mps 746 mmHg 77%
    19:00 +12°C° 0 mm 2 mps 746 mmHg 77%
    20:00 +12°C° 0 mm 2 mps 747 mmHg 76%
    21:00 +12°C° 0 mm 1 mps 747 mmHg 76%
    22:00 +11°C° 0 mm 1 mps 747 mmHg 75%
    23:00 +11°C° 0 mm 1 mps 748 mmHg 75%

    29 September, Saturday

    Time Temperature Precipitation Wind Pressure Humidity
    00:00 +9°C° 0 mm 2 mps 748 mmHg 76%
    01:00 +9°C° 0 mm 2 mps 748 mmHg 76%
    02:00 +8°C° 0 mm 2 mps 748 mmHg 76%
    03:00 +8°C° 0 mm 2 mps 748 mmHg 76%
    04:00 +8°C° 0 mm 2 mps 749 mmHg 76%
    05:00 +8°C° 0 mm 2 mps 749 mmHg 75%
    06:00 +8°C° 0 mm 3 mps 749 mmHg 74%
    07:00 +8°C° 0 mm 3 mps 750 mmHg 73%
    08:00 +10°C° 0 mm 3 mps 750 mmHg 66%
    09:00 +12°C° 0 mm 4 mps 750 mmHg 59%
    10:00 +13°C° 0 mm 4 mps 751 mmHg 52%
    11:00 +14°C° 0 mm 4 mps 750 mmHg 49%
    12:00 +15°C° 0 mm 4 mps 750 mmHg 45%
    13:00 +16°C° 0 mm 3 mps 750 mmHg 42%
    14:00 +16°C° 0 mm 3 mps 750 mmHg 42%
    15:00 +16°C° 0 mm 3 mps 750 mmHg 42%
    16:00 +14°C° 0 mm 3 mps 749 mmHg 42%
    17:00 +13°C° 0 mm 3 mps 749 mmHg 45%
    18:00 +12°C° 0 mm 3 mps 750 mmHg 48%
    19:00 +10°C° 0 mm 3 mps 750 mmHg 51%
    20:00 +10°C° 0 mm 3 mps 750 mmHg 52%
    21:00 +9°C° 0 mm 3 mps 750 mmHg 53%
    22:00 +9°C° 0 mm 3 mps 750 mmHg 54%
    23:00 +8°C° 0 mm 3 mps 749 mmHg 57%
    Show more

    3.3.7123123